{"data":{"norad_id":63051,"epoch":"2026-05-25T02:16:23.358720Z","epoch_age_seconds":67647,"freshness":"FRESH","line1":"1 63051U 25034Y   26145.09471480  .00034521  00000+0  10281-2 0  9998","line2":"2 63051  53.1599 275.3898 0001006  86.4366 273.6752 15.34400055 70614","mean_motion":15.34400055,"eccentricity":0.0001006,"inclination_deg":53.1599,"raan_deg":275.3898,"arg_perigee_deg":86.4366,"mean_anomaly_deg":273.6752,"bstar":0.0010281,"rev_number":7061,"period_min":93.847754717397,"perigee_km":462.0148882238,"apogee_km":463.39126524724,"semimajor_km":6840.8400767355,"source":"CELESTRAK","updated_at":"2026-05-25T13:38:19.870593Z"}}